GW4352 Weather Reports


time (UTC)temp
C
wind
direction
speed
KPH
gust
KPH
rain 1hr
cm
rain 24hr
cm
rain mn
cm
humidity
%
barometer
mb
20260506073025 8 42 8.0 17.7 0.00 0.00 0.00 77 1010.7
20260506072023 8 12 4.8 9.7 0.00 0.00 0.00 77 1010.7
20260506071026 9 345 6.4 11.3 0.00 0.00 0.00 77 1010.5
20260506062021 8 21 4.8 16.1 0.00 0.00 0.00 81 1010.2
20260506061025 8 36 4.8 17.7 0.00 0.00 0.00 81 1010.2
20260506051041 8 20 8.0 16.1 0.00 0.00 0.00 83 1010.0
20260506045106 8 36 3.2 9.7 0.00 0.00 0.00 84 1010.1
20260506044019 8 33 4.8 11.3 0.00 0.00 0.00 84 1009.8
20260506043026 8 46 3.2 9.7 0.00 0.00 0.00 84 1009.7
20260506042034 8 27 3.2 6.4 0.00 0.00 0.00 83 1009.7
20260506041029 8 37 6.4 14.5 0.00 0.00 0.00 82 1009.9
20260506040018 8 28 4.8 9.7 0.00 0.00 0.00 82 1009.6
20260506035042 9 33 3.2 12.9 0.00 0.00 0.00 81 1009.6
20260506034018 9 32 8.0 17.7 0.00 0.00 0.00 81 1009.7
20260506033025 9 47 4.8 12.9 0.00 0.00 0.00 82 1009.8
20260506032018 9 24 6.4 11.3 0.00 0.00 0.00 82 1009.8
20260506031123 10 35 4.8 16.1 0.00 0.00 0.00 83 1009.7
20260506030054 10 33 4.8 11.3 0.00 0.00 0.00 83 1009.7
20260506025025 10 37 4.8 11.3 0.00 0.00 0.00 82 1009.8
20260506024018 10 40 6.4 17.7 0.00 0.00 0.00 82 1009.7
20260506023042 10 39 6.4 16.1 0.00 0.00 0.00 81 1009.6
20260506022018 10 35 3.2 6.4 0.00 0.00 0.00 79 1009.7
20260506021026 10 31 4.8 12.9 0.00 0.00 0.00 79 1009.7
20260506020021 10 42 4.8 12.9 0.00 0.00 0.00 79 1009.9
20260506015026 10 36 3.2 9.7 0.00 0.00 0.00 78 1010.1
20260506014054 10 40 6.4 14.5 0.00 0.00 0.00 78 1010.0
20260506013047 10 36 4.8 14.5 0.00 0.00 0.00 78 1010.0
20260506012017 10 34 6.4 20.9 0.00 0.00 0.00 77 1010.1
20260506011041 10 39 4.8 12.9 0.00 0.00 0.00 77 1010.1
20260506010019 10 41 4.8 17.7 0.00 0.00 0.00 77 1010.0
20260506005047 11 40 3.2 6.4 0.00 0.00 0.00 76 1010.0
20260506004019 11 43 3.2 12.9 0.00 0.00 0.00 75 1010.2
20260506003028 11 53 6.4 16.1 0.00 0.00 0.00 75 1010.0
20260506002036 11 50 6.4 14.5 0.00 0.00 0.00 75 1010.0
20260506001027 11 49 9.7 20.9 0.00 0.00 0.00 78 1010.0
20260506000027 11 39 3.2 11.3 0.00 0.00 0.00 78 1010.1
20260505235027 11 36 4.8 11.3 0.00 0.00 0.00 78 1010.2
20260505234020 11 47 4.8 14.5 0.00 0.00 0.00 77 1010.2
20260505233026 11 40 6.4 22.5 0.00 0.00 0.00 77 1010.1
20260505232040 11 53 6.4 14.5 0.00 0.00 0.00 76 1010.2
20260505231027 11 41 6.4 20.9 0.00 0.00 0.00 74 1010.1
20260505230033 11 39 4.8 12.9 0.00 0.00 0.00 74 1010.3
20260505225028 11 61 3.2 6.4 0.00 0.00 0.00 74 1010.1
20260505224017 11 72 3.2 9.7 0.00 0.00 0.00 73 1010.0
20260505223041 12 59 3.2 6.4 0.00 0.00 0.00 73 1010.0
20260505222042 12 71 1.6 4.8 0.00 0.00 0.00 72 1010.1
20260505221025 12 92 1.6 9.7 0.00 0.00 0.00 71 1010.0
20260505220019 12 78 3.2 6.4 0.00 0.00 0.00 71 1009.8
20260505215025 12 87 3.2 9.7 0.00 0.00 0.00 70 1010.1
20260505214033 12 89 6.4 12.9 0.00 0.00 0.00 70 1009.9
20260505213027 13 76 4.8 11.3 0.00 0.00 0.00 71 1009.8
20260505212017 13 41 3.2 9.7 0.00 0.00 0.00 71 1009.7
20260505211043 13 45 4.8 9.7 0.00 0.00 0.00 71 1009.6
20260505210019 13 22 6.4 14.5 0.00 0.00 0.00 71 1009.7
20260505205047 13 45 6.4 16.1 0.00 0.00 0.00 71 1009.7
20260505204033 13 43 4.8 11.3 0.00 0.00 0.00 70 1009.5
20260505203027 13 26 6.4 12.9 0.00 0.00 0.00 70 1009.6
20260505202019 13 34 3.2 9.7 0.00 0.00 0.00 70 1009.3
20260505201047 13 3 3.2 11.3 0.00 0.00 0.00 70 1009.5
20260505200018 13 8 1.6 6.4 0.00 0.00 0.00 70 1009.3
20260505195041 13 51 1.6 4.8 0.00 0.00 0.00 70 1009.3
20260505194019 13 18 1.6 4.8 0.00 0.00 0.00 70 1008.9
20260505193027 14 10 1.6 6.4 0.00 0.00 0.00 69 1009.0
20260505192021 14 349 3.2 11.3 0.00 0.00 0.00 69 1009.1
20260505191048 14 5 3.2 9.7 0.00 0.00 0.00 68 1008.9
20260505190033 14 340 4.8 11.3 0.00 0.00 0.00 68 1008.8
20260505185027 14 10 3.2 11.3 0.00 0.00 0.00 68 1009.0
20260505184017 14 16 1.6 6.4 0.00 0.00 0.00 68 1008.9
20260505183041 14 342 3.2 11.3 0.00 0.00 0.00 68 1008.7
20260505182018 14 358 3.2 9.7 0.00 0.00 0.00 68 1009.0
20260505181032 14 346 3.2 6.4 0.00 0.00 0.00 69 1008.9
20260505180020 15 342 3.2 9.7 0.00 0.00 0.00 68 1008.9
20260505175026 15 340 3.2 12.9 0.00 0.00 0.00 68 1008.9
20260505174033 15 334 1.6 6.4 0.00 0.00 0.00 68 1009.0
20260505173027 15 358 3.2 11.3 0.00 0.00 0.00 67 1008.9
20260505172017 15 357 4.8 12.9 0.00 0.00 0.00 67 1008.9
20260505171042 15 343 4.8 14.5 0.00 0.00 0.00 66 1009.1
20260505170018 15 350 6.4 14.5 0.00 0.00 0.00 63 1009.0
20260505165025 15 337 4.8 11.3 0.00 0.00 0.00 62 1009.2
20260505164019 15 343 3.2 9.7 0.00 0.00 0.00 62 1009.3
20260505163026 15 343 3.2 9.7 0.00 0.00 0.00 62 1009.1
20260505162035 15 330 4.8 14.5 0.00 0.00 0.00 61 1009.1
20260505161027 15 344 3.2 9.7 0.00 0.00 0.00 62 1009.2
20260505153025 15 23 3.2 9.7 0.00 0.00 0.00 62 1009.1
20260505152018 15 21 4.8 14.5 0.00 0.00 0.00 61 1009.2
20260505151027 15 20 4.8 11.3 0.00 0.00 0.00 62 1009.4
20260505125026 15 38 6.4 12.9 0.00 0.00 0.00 62 1009.9
20260505124017 15 61 11.3 16.1 0.00 0.00 0.00 62 1009.6
20260505123046 15 30 8.0 14.5 0.00 0.00 0.00 65 1009.9
20260505122034 15 35 4.8 12.9 0.00 0.00 0.00 66 1009.9
20260505121026 14 50 3.2 11.3 0.00 0.00 0.00 68 1009.8
20260505120017 15 48 6.4 14.5 0.00 0.00 0.00 67 1009.7
20260505115041 16 42 8.0 16.1 0.00 0.00 0.00 65 1009.7
20260505114019 15 45 4.8 12.9 0.00 0.00 0.00 69 1009.8
20260505113044 15 32 9.7 22.5 0.00 0.00 0.00 69 1009.9
20260505112041 15 350 6.4 12.9 0.00 0.00 0.00 70 1009.9
20260505111026 14 5 4.8 9.7 0.00 0.00 0.00 71 1010.0
20260505102018 12 24 6.4 16.1 0.00 0.00 0.00 78 1010.3
20260505101025 12 32 6.4 12.9 0.00 0.00 0.00 78 1010.4
20260505100018 12 42 6.4 17.7 0.00 0.00 0.00 79 1010.4
20260505095027 12 42 6.4 14.5 0.00 0.00 0.00 79 1010.5
20260505094032 12 34 6.4 16.1 0.00 0.00 0.00 78 1010.5
20260505093027 12 4 4.8 14.5 0.00 0.00 0.00 77 1010.6
20260505092019 12 31 6.4 12.9 0.00 0.00 0.00 77 1010.4
20260505091041 12 26 4.8 12.9 0.00 0.00 0.00 78 1010.4
20260505090018 12 37 4.8 12.9 0.00 0.00 0.00 78 1010.5
20260505085025 12 32 6.4 12.9 0.00 0.00 0.00 79 1010.6
20260505084101 12 40 9.7 20.9 0.00 0.00 0.00 80 1010.5
20260505083026 12 1 6.4 16.1 0.00 0.00 0.00 83 1010.8
20260505082033 12 360 6.4 14.5 0.00 0.00 0.00 85 1010.7
20260505081041 12 10 6.4 16.1 0.00 0.00 0.00 85 1010.6
20260505080019 12 340 3.2 9.7 0.00 0.00 0.00 86 1010.8
20260505075027 12 10 4.8 17.7 0.00 0.00 0.00 86 1010.6
20260505074018 12 36 6.4 14.5 0.00 0.00 0.00 86 1010.6